[[{"header":{"parameterUnit":"m.s-1","parameterCategory":1,"la1":30.2991,"la2":30.254,"lo1":-89.0895,"lo2":-89.0444,"dy":0.0017,"dx":0.0017,"nx":28,"ny":28,"refTime":"2024-12-10T03:00:00:Z","depth":0,"parameterNumber":2,"parameterNumberName":"U-component_of_WINDS"},"data":[0,0,0,0,0,0,0,0,0,0,0,0,0,0,0,0,0,0,0,0,0,0,0,0,0,0,0,0,0,0,0,0,0,0,0,0,0,0,0,0,0,0,0,0,0,0,0,0,0,0,0,0,0,0,0,0,0,0,-0.7906,-0.7906,0,-0.7925,-0.7925,-0.7925,-0.7941,-0.7941,-0.7941,-0.7941,-0.796,-0.7961,-0.7961,0,0,0,0,0,0,0,0,0,0,0,0,0,-0.7881,-0.7882,-0.7906,-0.7906,-0.7906,-0.7925,-0.7925,-0.7926,-0.7941,-0.7941,-0.7941,-0.7942,-0.796,-0.7961,-0.7961,0,0,0,0,0,0,0,0,0,0,0,0,0,-0.7895,-0.7882,-0.7906,-0.7916,-0.7917,-0.7925,-0.7925,-0.7926,-0.7941,-0.7941,-0.7941,-0.7942,-0.796,-0.7961,-0.7961,-0.796,0,0,-0.7963,-0.7963,0,0,0,0,0,0,0,0,-0.7895,-0.7896,-0.7914,-0.7915,-0.7917,-0.7931,-0.7924,-0.7937,-0.7941,-0.7932,-0.7941,-0.7942,-0.795,-0.7952,-0.7955,-0.7961,-0.7961,-0.7963,-0.7963,-0.7963,-0.7964,0,0,0,0,0,0,0,-0.7894,-0.7896,-0.7913,-0.7915,-0.7916,-0.792,-0.7922,-0.7926,-0.7939,-0.7933,-0.7934,-0.7936,-0.7951,-0.7954,-0.7955,-0.7962,-0.7963,-0.7963,-0.7964,-0.7964,-0.7967,-0.7967,0,0,0,0,0,0,-0.7891,-0.7895,-0.7913,-0.7914,-0.7906,-0.792,-0.7922,-0.7926,-0.794,-0.7942,-0.7936,-0.7937,-0.7953,-0.7955,-0.7956,-0.7955,-0.7963,-0.7964,-0.7964,-0.7968,-0.7967,-0.7967,0,0,0,0,0,0,-0.7891,-0.7893,-0.7912,-0.7905,-0.7907,-0.792,-0.7924,-0.7926,-0.793,-0.7942,-0.7944,-0.7937,-0.7953,-0.7955,-0.7959,-0.7956,-0.7964,-0.7965,-0.7968,-0.7967,-0.7967,-0.7953,0,0,0,0,0,0,-0.789,-0.7892,-0.7892,-0.7905,-0.7908,-0.7914,-0.7924,-0.7927,-0.793,-0.7932,-0.7943,-0.7945,-0.7954,-0.7958,-0.7959,-0.7957,-0.7965,-0.7968,-0.7968,-0.7967,-0.7954,-0.7952,-0.7951,0,0,0,0,0,-0.7889,-0.7887,-0.7892,-0.7894,-0.7908,-0.7914,-0.7916,-0.7926,-0.793,-0.793,-0.7938,-0.7945,-0.7956,-0.7958,-0.796,-0.7957,-0.7968,-0.7968,-0.7967,-0.7954,-0.7952,-0.7951,0,0,0,0,0,0,-0.7873,-0.7889,-0.7894,-0.7897,-0.7904,-0.7917,-0.7917,-0.7924,-0.793,-0.7931,-0.7942,-0.7945,-0.7947,-0.7953,-0.7955,-0.7957,-0.7963,-0.7963,-0.7953,-0.7951,-0.795,-0.7948,-0.7966,0,0,0,0,0,-0.787,-0.7875,-0.7888,-0.7889,-0.7892,-0.7904,-0.7907,-0.7914,-0.7922,-0.7925,-0.7933,-0.7941,-0.7946,-0.7949,-0.7954,-0.7955,-0.7957,-0.7954,-0.7953,-0.7951,-0.7951,-0.7951,-0.795,-0.7965,-0.7965,-0.7965,0,0,-0.7864,-0.7873,-0.7875,-0.7886,-0.7892,-0.7896,-0.7906,-0.791,-0.7913,-0.7926,-0.7929,-0.7936,-0.7945,-0.7947,-0.7948,-0.7951,-0.7947,-0.7951,-0.795,-0.795,-0.7951,-0.7949,-0.7948,-0.7965,-0.7965,-0.7965,0,0,-0.7854,-0.7861,-0.7863,-0.7869,-0.7879,-0.7887,-0.7887,-0.7899,-0.7904,-0.7908,-0.7918,-0.7921,-0.793,-0.7936,-0.794,-0.7933,-0.794,-0.7934,-0.7926,-0.7927,-0.7926,-0.7925,-0.7922,-0.792,-0.7934,-0.7934,-0.7934,0,-0.7844,-0.7851,-0.7862,-0.7865,-0.787,-0.7882,-0.7883,-0.7889,-0.79,-0.7903,-0.7907,-0.7918,-0.7925,-0.7928,-0.7927,-0.793,-0.793,-0.7933,-0.7925,-0.7924,-0.7923,-0.7921,-0.7919,-0.7933,-0.7933,-0.7933,-0.7933,0,-0.7839,-0.7843,-0.7843,-0.7853,-0.7858,-0.786,-0.7872,-0.7875,-0.7882,-0.7889,-0.7893,-0.7902,-0.7909,-0.7911,-0.7917,-0.7915,-0.7917,-0.7923,-0.7929,-0.7921,-0.7918,-0.7918,-0.7932,-0.7932,-0.7933,-0.7933,0,0,-0.7819,-0.7836,-0.7836,-0.7841,-0.7853,-0.7856,-0.7859,-0.7867,-0.7869,-0.7876,-0.7879,-0.7886,-0.7892,-0.7896,-0.7904,-0.7904,-0.7898,-0.791,-0.7911,-0.7907,-0.7895,-0.789,-0.7889,-0.7903,-0.7902,-0.7902,-0.7894,0,-0.781,-0.7816,-0.7826,-0.7828,-0.7832,-0.7844,-0.7847,-0.7854,-0.7862,-0.7866,-0.7874,-0.7879,-0.7886,-0.7889,-0.789,-0.7898,-0.7895,-0.7899,-0.7904,-0.7904,-0.7901,-0.7888,-0.7882,-0.7874,-0.7894,-0.7893,-0.7893,0,-0.7801,-0.7808,-0.781,-0.7822,-0.7824,-0.7826,-0.7834,-0.7838,-0.7847,-0.7852,-0.7858,-0.7866,-0.787,-0.7876,-0.7881,-0.7883,-0.7886,-0.7891,-0.7891,-0.7891,-0.7898,-0.7887,-0.7872,-0.787,-0.7892,-0.7892,-0.7892,0,-0.7785,-0.7795,-0.7798,-0.7802,-0.7816,-0.7817,-0.7823,-0.7832,-0.7836,-0.7843,-0.7846,-0.7853,-0.7856,-0.7862,-0.7872,-0.7876,-0.7875,-0.7883,-0.7879,-0.7879,-0.7878,-0.7878,-0.7863,-0.7881,-0.7881,-0.7881,-0.7881,0,-0.7774,-0.7775,-0.7791,-0.7793,-0.7794,-0.7806,-0.7807,-0.7814,-0.7823,-0.7826,-0.7837,-0.784,-0.7853,-0.7857,-0.7865,-0.7868,-0.787,-0.7874,-0.7876,-0.7872,-0.7872,-0.7874,-0.7874,-0.7881,-0.7881,-0.7881,-0.7881,0,-0.7756,-0.7767,-0.7771,-0.7784,-0.7788,-0.7788,-0.7799,-0.7801,-0.781,-0.7813,-0.7815,-0.7828,-0.7833,-0.7844,-0.7853,-0.7858,-0.7859,-0.7863,-0.7855,-0.7857,-0.7852,-0.7852,-0.7837,-0.7836,-0.7856,-0.7856,-0.7855,0,-0.7748,-0.7749,-0.7762,-0.7765,-0.7771,-0.7776,-0.778,-0.7792,-0.7796,-0.7806,-0.7807,-0.7814,-0.7819,-0.7828,-0.7838,-0.7844,-0.7848,-0.7843,-0.7849,-0.7846,-0.7847,-0.7847,-0.7847,-0.7841,-0.784,-0.784,-0.784,0,-0.7732,-0.7737,-0.7743,-0.775,-0.7755,-0.7761,-0.7768,-0.777,-0.7784,-0.7788,-0.7794,-0.7799,-0.7808,-0.7814,-0.7822,-0.7828,-0.7836,-0.7838,-0.7837,-0.7833,-0.7829,-0.7831,-0.7851,-0.7838,-0.7838,-0.7838,-0.7838,-0.7838,-0.7718,-0.7719,-0.7729,-0.7735,-0.7742,-0.7748,-0.7751,-0.7759,-0.7764,-0.7773,-0.778,-0.7785,-0.7794,-0.7806,-0.7812,-0.7816,-0.782,-0.782,-0.7819,-0.7819,-0.7817,-0.7829,-0.7818,-0.7818,-0.7818,-0.7818,-0.7818,0,-0.7702,-0.7709,-0.7714,-0.7724,-0.7728,-0.7736,-0.7744,-0.7748,-0.7752,-0.776,-0.7766,-0.7773,-0.7779,-0.779,-0.7797,-0.7798,-0.7802,-0.78,-0.7799,-0.7801,-0.7813,-0.7813,-0.7797,-0.7797,-0.7797,-0.7797,-0.7797,-0.7797,-0.7693,-0.7696,-0.7703,-0.7709,-0.7716,-0.7722,-0.7726,-0.7732,-0.7738,-0.7745,-0.7751,-0.7758,-0.7767,-0.7775,-0.7781,-0.7784,-0.7786,-0.7782,-0.7786,-0.7798,-0.78,-0.7802,-0.7801,-0.7783,-0.7783,-0.7773,-0.7773,-0.7773]},{"header":{"parameterUnit":"m.s-1","parameterCategory":1,"la1":30.2991,"la2":30.254,"lo1":-89.0895,"lo2":-89.0444,"dy":0.0017,"dx":0.0017,"nx":28,"ny":28,"refTime":"2024-12-10T03:00:00:Z","depth":0,"parameterNumber":3,"parameterNumberName":"V-component_of_WINDS"},"data":[0,0,0,0,0,0,0,0,0,0,0,0,0,0,0,0,0,0,0,0,0,0,0,0,0,0,0,0,0,0,0,0,0,0,0,0,0,0,0,0,0,0,0,0,0,0,0,0,0,0,0,0,0,0,0,0,0,0,2.1478,2.1478,0,2.15,2.15,2.15,2.1471,2.147,2.1469,2.1468,2.149,2.1491,2.1493,0,0,0,0,0,0,0,0,0,0,0,0,0,2.1411,2.1412,2.1478,2.1478,2.1479,2.15,2.15,2.15,2.1471,2.147,2.1469,2.1467,2.1489,2.1491,2.1493,0,0,0,0,0,0,0,0,0,0,0,0,0,2.1437,2.1413,2.1478,2.1467,2.1466,2.15,2.15,2.15,2.1471,2.147,2.1468,2.1467,2.1489,2.1491,2.1493,2.1539,0,0,2.15,2.1501,0,0,0,0,0,0,0,0,2.1436,2.144,2.1468,2.1467,2.1467,2.1481,2.1484,2.1513,2.1472,2.1469,2.1468,2.1466,2.1488,2.149,2.1498,2.154,2.1541,2.1501,2.1502,2.1503,2.1504,0,0,0,0,0,0,0,2.1434,2.1439,2.1487,2.1468,2.1468,2.146,2.1462,2.149,2.1487,2.1469,2.1467,2.147,2.1487,2.1496,2.1498,2.1541,2.15,2.1503,2.1504,2.1505,2.1624,2.1626,0,0,0,0,0,0,2.1434,2.1437,2.1486,2.1487,2.1447,2.1463,2.1465,2.1478,2.1487,2.1487,2.1472,2.1469,2.1493,2.1496,2.1499,2.1555,2.1503,2.1505,2.1507,2.1622,2.1624,2.1626,0,0,0,0,0,0,2.1432,2.1438,2.1485,2.1462,2.1467,2.1466,2.1481,2.1479,2.1488,2.1489,2.1488,2.1481,2.1491,2.1496,2.153,2.1555,2.1506,2.1508,2.162,2.1623,2.1625,2.1666,0,0,0,0,0,0,2.143,2.1438,2.1455,2.1462,2.1469,2.1516,2.1482,2.1481,2.1492,2.1488,2.1497,2.1497,2.149,2.1526,2.1532,2.1557,2.151,2.1618,2.1621,2.1625,2.1662,2.167,2.1676,0,0,0,0,0,2.1428,2.1466,2.1456,2.1462,2.149,2.1517,2.1521,2.1513,2.1494,2.1512,2.1512,2.1497,2.1551,2.153,2.1536,2.1563,2.1616,2.162,2.1624,2.1659,2.1668,2.1676,0,0,0,0,0,0,2.1461,2.1466,2.1456,2.1497,2.1507,2.1512,2.1534,2.1522,2.1538,2.1534,2.1523,2.1525,2.1562,2.1565,2.1542,2.1608,2.1581,2.1586,2.1605,2.1614,2.162,2.1619,2.1512,0,0,0,0,0,2.1473,2.1495,2.1498,2.1534,2.1539,2.1536,2.1547,2.154,2.155,2.1554,2.1558,2.1568,2.1587,2.16,2.1618,2.1662,2.1664,2.1683,2.169,2.1696,2.1701,2.1726,2.1735,2.1639,2.1639,2.1639,0,0,2.1499,2.1504,2.1518,2.154,2.1547,2.157,2.154,2.1565,2.1582,2.1558,2.1591,2.1594,2.1604,2.1644,2.1662,2.1648,2.1727,2.1701,2.1705,2.1707,2.1731,2.174,2.1748,2.1642,2.1641,2.1641,0,0,2.1557,2.1562,2.1593,2.1601,2.1612,2.161,2.1617,2.1625,2.1626,2.1659,2.1642,2.1661,2.1695,2.1703,2.1712,2.1774,2.176,2.178,2.1816,2.184,2.1848,2.1854,2.1878,2.1886,2.1785,2.1785,2.1785,0,2.1587,2.1621,2.1611,2.1638,2.1648,2.1628,2.166,2.1668,2.1684,2.1692,2.1676,2.1718,2.1724,2.1766,2.1781,2.1788,2.1797,2.178,2.1847,2.1854,2.186,2.1883,2.1891,2.1787,2.1787,2.1787,2.1786,0,2.1658,2.1681,2.1705,2.1722,2.1735,2.1764,2.1759,2.1774,2.1766,2.1765,2.1799,2.1805,2.1825,2.1834,2.1825,2.1875,2.1866,2.1849,2.1821,2.1872,2.1893,2.1901,2.1791,2.179,2.1789,2.1789,0,0,2.1738,2.175,2.1759,2.1767,2.1777,2.1796,2.1824,2.1843,2.1856,2.1868,2.1892,2.1921,2.1905,2.1915,2.1908,2.1929,2.198,2.1909,2.191,2.1924,2.2036,2.2051,2.2061,2.197,2.1972,2.1973,2.2036,0,2.1798,2.1847,2.184,2.1888,2.191,2.1891,2.1916,2.1925,2.1925,2.1944,2.1944,2.1965,2.1942,2.1948,2.1968,2.1969,2.2003,2.1964,2.1994,2.1995,2.1993,2.2072,2.2087,2.2146,2.2044,2.2045,2.2046,0,2.1874,2.1889,2.194,2.1948,2.1957,2.198,2.1997,2.2015,2.2026,2.2024,2.2036,2.2025,2.2053,2.2024,2.2064,2.2038,2.2049,2.2051,2.2053,2.2057,2.2025,2.2079,2.2165,2.2175,2.2059,2.2058,2.2057,0,2.193,2.1963,2.1998,2.2005,2.2015,2.2032,2.2036,2.2045,2.2057,2.2072,2.208,2.2098,2.2109,2.2123,2.2117,2.2096,2.2158,2.2128,2.2159,2.2159,2.2175,2.2174,2.2265,2.2179,2.2179,2.2178,2.2178,0,2.1999,2.2031,2.2024,2.2045,2.2081,2.2071,2.2107,2.2109,2.2117,2.2139,2.2123,2.2144,2.2134,2.2154,2.2149,2.2184,2.2188,2.2188,2.2187,2.2191,2.2191,2.22,2.2196,2.2181,2.218,2.218,2.2179,0,2.2068,2.2065,2.2102,2.2108,2.211,2.2137,2.2142,2.2162,2.2161,2.2189,2.2195,2.2193,2.2216,2.2211,2.2236,2.2233,2.2277,2.227,2.2274,2.2273,2.2305,2.2303,2.2406,2.242,2.2323,2.2324,2.2324,0,2.2113,2.2138,2.2147,2.2161,2.2167,2.2189,2.2202,2.2193,2.2207,2.2221,2.224,2.2261,2.2278,2.2316,2.2317,2.2336,2.2331,2.2365,2.2333,2.2337,2.2333,2.2333,2.2336,2.2372,2.2373,2.2374,2.2375,0,2.2194,2.2191,2.2211,2.2229,2.2245,2.2259,2.2272,2.2284,2.2276,2.2293,2.2316,2.233,2.2355,2.2378,2.2396,2.24,2.2387,2.2385,2.2393,2.2399,2.2401,2.2402,2.2294,2.2383,2.2382,2.2382,2.2381,2.2381,2.2255,2.2276,2.2286,2.2308,2.2316,2.2329,2.2349,2.235,2.237,2.2391,2.2384,2.2411,2.2421,2.2444,2.2451,2.2472,2.2459,2.2471,2.2474,2.2478,2.2483,2.2396,2.2475,2.2475,2.2474,2.2474,2.2474,0,2.2337,2.2342,2.2362,2.2381,2.2398,2.2383,2.2397,2.2412,2.2437,2.2447,2.2464,2.2492,2.2513,2.2516,2.2536,2.2553,2.2547,2.2559,2.2558,2.256,2.2492,2.2484,2.2563,2.2563,2.2563,2.2563,2.2563,2.2563,2.2381,2.2417,2.2416,2.2456,2.246,2.2488,2.2497,2.2508,2.2516,2.2548,2.2566,2.2567,2.2575,2.2596,2.2615,2.2615,2.2624,2.2638,2.2636,2.2573,2.2565,2.2556,2.2548,2.264,2.264,2.2702,2.2703,2.2703]}]]